THORAD DELTA 1 DEB, 8169

Orbit data source: Space-Track

THORAD DELTA 1 DEB, 8169 is space debris in SSO originally from a launch on Fri, 15 Nov 1974 UTC launched from the Air Force Western Test Range (AFWTR). Debris objects in space refer to the collection of defunct objects orbiting the Earth. Examples of debris include non-operational satellites, rocket bodies, and fragments generated from explosions, collisions, or faulty payload assembly.

Loading next visibility...
Identifier
8169, 1974-089AK
Orbit
SSO
Country
Flag of USUS
Related business
Manufacturer
Unknown
Mission
Spacecraft
Bus & Motor
Unknown
Mass
Unknown
Launch date (UTC)
1974-11-15 (51 years ago)
Launch vehicle
Unknown
Launch site
Air Force Western Test Range (AFWTR)
Object type
Payload
Rocket body
Debris
Shape & HBR
Unknown shape, 0.1 m
Radar Cross Section
Small (<0.1 m²)

Expand to show TLE details & history
Last TLE update: 23 hours ago

TLE from 23 hours ago
0 THORAD DELTA 1 DEB
1 08169U 74089AK  26129.53978698  .00001574  00000-0  56974-2 0  9997
2 08169 102.5168 116.2253 0116483 223.1137 257.6959 12.94200463395776
Epoch: 2026-05-09T12:57Z
TLE epoch observation values (Epoch: 2026-05-09T12:57:17.595Z)
Latitude
58.2623°
Longitude
-104.52962°
Altitude
1,314.528 km
Speed
7.196 km/s
True Right ascension
21h 08m 35s
True Declination
58° 07' 10"
Sunlit
Object was in daylight at epoch
Visualization orbit readout
Latitude
Unknown
Longitude
Unknown
Altitude
Unknown
Speed
Unknown
Apparent Right ascension
Unknown
Apparent Declination
Unknown
Sunlit
N/A
Visualization observer readout
Local Sidereal Time
20:24:20
Azimuth
Unknown
Elevation
Unknown
Doppler factor
Unknown
Orbital elements
Apogee altitude
1,371.667 km
Perigee altitude
1,193.201 km
Semi-major axis
7,660.571 km
Eccentricity
0.01165
Inclination
102.5168°
RAAN
116.2253°
Arg. of periapsis
223.1137°
True anomaly
256.39591°
Mean anomaly
257.6959°
Eccentric anomaly
257.04549°
Mean motion
3.23707 °/min
Orbital period
111.21 mins
BSTAR
0.0056974
Loading maneuver chart data...
Computing Atmospheric mass density...
Loading historical data...
Loading historical data...
Loading historical data...
Loading historical data...
Loading historical data...
Loading historical data...
Loading historical data...

Documentation

Showing up to 5 results
|